Regional Weather Roundup
Issued by NWS

Home | Current Version | Previous Version | Graphics & Text | Print | Product List | Glossary On
Versions: 1 2 3 4 5 6 7 8 9 10 11 12 13 14 15 16 17 18 19 20 21 22 23 24 25 26 27 28 29 30 31 32 33 34 35 36 37 38 39 40 41 42 43 44 45 46 47 48 49 50
000
ASUS43 KMKX 050821
RWRWI

WISCONSIN REGIONAL WEATHER ROUNDUP
NATIONAL WEATHER SERVICE MILWAUKEE/SULLIVAN WI
200 AM CST THU MAR 05 2015

NOTE: "FAIR" INDICATES FEW OR NO CLOUDS BELOW 12,000 FEET WITH NO
SIGNIFICANT WEATHER AND/OR OBSTRUCTIONS TO VISIBILITY.

WIZ001-002-006>008-014>016-023>028-050900-
NORTHWEST WISCONSIN

CITY           SKY/WX    TMP DP  RH WIND       PRES   REMARKS
SUPERIOR ARPT  CLEAR    -10 -17  72 SW7       30.44R WCI -25
ASHLAND        CLEAR     -8 -17  64 SW7       30.38S WCI -23
HAYWARD        CLEAR    -20 -28  67 CALM      30.35R
SIREN          CLEAR    -16 -21  75 CALM      30.41S
CUMBERLAND     CLEAR    -13 -22  64 NW5       30.36R WCI -25
RICE LAKE      CLEAR    -13 -20  71 CALM      30.40R
CHETEK         CLEAR    -12 -16  79 CALM      30.39R
LADYSMITH      CLEAR    -12 -17  77 CALM      30.36S
EAU CLAIRE     CLEAR     -6 -16  61 W3        30.41R
MENOMONIE      CLEAR     -3 -14  60 W5        30.42R WCI -14
NEW RICHMOND   CLEAR     -8 -15  69 NW7       30.42R WCI -22
OSCEOLA        CLEAR    -14 -19  76 CALM      30.46R
$$

WIZ003>005-009-010-017-018-050900-
NORTH CENTRAL WISCONSIN

CITY           SKY/WX    TMP DP  RH WIND       PRES   REMARKS
MANITOWISH WTR FAIR     -12 -18  73 W3        30.25S
ARBOR VITAE    CLEAR    -11 -18  73 CALM      30.25S
WOODRUFF       CLEAR    -11 -18  73 CALM      30.25S
RHINELANDER    CLEAR    -11 -18  71 W7        30.27R WCI -26
EAGLE RIVER    CLEAR    -14 -22  69 CALM      30.25R
LAND O LAKES   CLEAR    -19 -24  76 CALM      30.25R
PHILLIPS       CLEAR    -20 -24  79 CALM      30.29R
TOMAHAWK       FAIR     -14 -19  76 CALM      30.30R
MEDFORD        CLEAR     -9 -16  70 W6        30.31R WCI -23
MERRILL        CLEAR    -14 -19  79 CALM      30.33R
$$

WIZ029-030-035-036-043>047-050900-
CENTRAL WISCONSIN

CITY           SKY/WX    TMP DP  RH WIND       PRES   REMARKS
WAUSAU         CLEAR     -6 -14  68 NW3       30.33R
MOSINEE        CLEAR     -8 -15  71 W3        30.35S
MARSHFIELD     CLEAR     -5 -14  65 W7        30.35R WCI -19
STEVENS POINT  CLEAR    -12 -18  73 CALM      30.36F
WAUPACA        CLEAR     -1 -11  60 W3        30.38F
WAUTOMA        CLEAR     -9 -16  71 CALM      30.39F
WISC RAPIDS    CLEAR     -6 -15  65 NW3       30.38F
CAMP DOUGLAS   CLEAR     -6 -11  81 W5        30.39S WCI -17
$$

WIZ011>013-019>022-031-037>040-048>050-050900-
NORTHEAST WISCONSIN

CITY           SKY/WX    TMP DP  RH WIND       PRES   REMARKS
ANTIGO         CLEAR    -15 -20  81 SW3       30.30R
SHAWANO        CLEAR     -2 -11  65 CALM      30.37S
OCONTO         CLEAR    -11 -16  81 CALM      30.38F
STURGEON BAY   CLEAR      0 -13  55 W6        30.36F WCI -12
GREEN BAY      CLEAR     -4 -12  68 NW6       30.37F WCI -16
MANITOWOC      CLEAR      1  -9  62 NW6       30.38R WCI -10
APPLETON       CLEAR      0 -15  50 NW6       30.36F WCI -12
CLINTONVILLE   CLEAR     -2 -13  60 NW3       30.37F
OSHKOSH        CLEAR      1 -11  57 NW5       30.37S WCI  -9
$$

WIZ032>034-041-042-053>061-050900-
SOUTHWEST WISCONSIN

CITY           SKY/WX    TMP DP  RH WIND       PRES   REMARKS
LA CROSSE      CLEAR      0 -10  63 NW6       30.45R WCI -12
SPARTA         CLEAR     -7 -13  76 CALM      30.42S
VIROQUA        CLEAR     -2  -8  73 NW3       30.35F
BOSCOBEL       CLEAR     -2  -9  72 CALM      30.43R
PRAIRIE DU CHI CLEAR      1  -9  62 NW8       30.44S WCI -12
PLATTEVILLE    PTCLDY     1  -6  71 W3        30.37S
$$

WIZ056-057-062-063-064-067-068-050900-
SOUTH CENTRAL WISCONSIN

CITY           SKY/WX    TMP DP  RH WIND       PRES   REMARKS
REEDSBURG      CLEAR      1  -9  60 NW3       30.39R
BARABOO/DELLS  CLEAR      0 -11  59 CALM      30.38R
LONE ROCK      CLEAR      1  -8  66 W3        30.41R
MINERAL POINT  PTCLDY     1  -6  71 NW6       30.34S WCI -10
MADISON        PTCLDY     3  -8  60 NW5       30.38R WCI  -6
MIDDLETON      PTCLDY     5  -8  54 N7        30.37S WCI  -7
WATERTOWN      PTCLDY     5  -8  56 NW6       30.36S WCI  -6
MONROE         PTCLDY     3  -2  78 NW9       30.34S WCI -11
JANESVILLE     PTCLDY     3  -6  66 NW3       30.37S
$$

WIZ051-052-058>065-066-070>072-050900-
SOUTHEAST WISCONSIN

CITY           SKY/WX    TMP DP  RH WIND       PRES   REMARKS
MILWAUKEE      MOCLDY     8  -9  45 NW9       30.36F WCI  -5
WAUKESHA       PTCLDY     3  -9  55 NW5       30.35F WCI  -6
MILWAUKEE/TIMM PTCLDY     5  -9  51 NW7       30.37F WCI  -7
RACINE         CLEAR      6  -9  50 NW6       30.37F WCI  -4
BURLINGTON     CLEAR     -8 -15  69 N3        30.35F
KENOSHA        CLEAR      3  -9  57 NW6       30.35F WCI  -8
FOND DU LAC    FLURRIES   1 -11  57 NW7       30.37S WCI -12
SHEBOYGAN      PTCLDY     2 -10  57 N6        30.36S WCI  -9
WEST BEND      PTCLDY     3  -9  55 NW6       30.35F WCI  -8
JUNEAU         CLEAR      2  -9  58 NW6       30.37S WCI  -9
$$

LSZ147-162-050900-
LAKE SUPERIOR

STATION/POSITION TIME  TEMP    WIND        PRES    WAVE
                       AIR SEA DIR/SP/G            HT/PER
                 (UTC) (F)     (DEG/KT/KT) (MB)    (FT/S)
DEVILS ISLAND    0800    6     290/  9/ 11 1030.1R
PORT WING        0740   -5     200/  7/  8 1029.5R
SAXON HARBOR     0700   -2     210/  6/ 11 1028.4R
$$

LMZ867-665-643>646-050900-
LAKE MICHIGAN

STATION/POSITION TIME  TEMP    WIND        PRES    WAVE
                       AIR SEA DIR/SP/G            HT/PER
                 (UTC) (F)     (DEG/KT/KT) (MB)    (FT/S)
NORTHPORT PIER   0713    2     280/  4/ 12 1027.8R
KEWAUNEE LAKESHO 0700    0     310/  3/  5   N/A
SHEBOYGAN LAKESH 0800    6     320/  9/ 11 1030.1F
PORT WASHINGTON  0740    7     310/  4/  7 1029.1R
MILWAUKEE LAKESH 0800    9     330/  9/ 12   N/A
KENOSHA   LAKESH 0800    7     300/  9/ 11 1028.1S
$$

TC  - TEMPERATURE IN CELSIUS
VSB - VISIBILITY IN STATUTE MILES
WCI - WIND CHILL INDEX
HX  - HEAT INDEX



USA.gov is the U.S. government's official web portal to all federal, state and local government web resources and services.